Bookmark and Share
Track history (hours):
 

CMA CGM Bahia

Last reported at 2014-Apr-20 12:09 UTC. Time now 2014-Apr-20 13:35 UTC.
Position N 36°09' W 005°26'.

Length 207.4 m; beam 29.8 m; draft 11.4 m.

Type: Cargo ship. MMSI: 304200000.

NotesDate/timePositionNaut miles runAvg speedWind from/ knotsBaromVisibWave heightAir tempDewpointWater temp
2014-Apr-20 12:09N 36°09' W 005°26'0 0.0
2014-Apr-20 11:27N 36°09' W 005°26'0 0.0
2014-Apr-20 10:18N 36°09' W 005°26'0 0.0
2014-Apr-20 09:33N 36°09' W 005°26'0 0.0
2014-Apr-20 08:22N 36°09' W 005°26'0 0.0
2014-Apr-20 07:28N 36°09' W 005°26'0 0.0
2014-Apr-20 05:16N 36°09' W 005°26'0 0.0
2014-Apr-20 04:31N 36°09' W 005°26'0 0.0
2014-Apr-20 03:25N 36°09' W 005°26'0 0.0
2014-Apr-20 02:25N 36°09' W 005°26'0 0.0
2014-Apr-20 01:19N 36°09' W 005°26'0 0.0
2014-Apr-19 22:13N 36°09' W 005°26'0 0.0
2014-Apr-19 21:27N 36°09' W 005°26'0 0.0
2014-Apr-19 20:33N 36°09' W 005°26'0 0.0
2014-Apr-19 19:33N 36°09' W 005°26'0 0.0
2014-Apr-19 16:33N 36°09' W 005°26'0 0.0
2014-Apr-19 15:32N 36°09' W 005°26'0 0.0
2014-Apr-19 14:26N 36°09' W 005°26'0 0.0
2014-Apr-19 13:32N 36°09' W 005°26'0 0.0
2014-Apr-19 12:32N 36°09' W 005°26'0 0.0
2014-Apr-19 11:29N 36°09' W 005°26'0 0.0
2014-Apr-19 10:28N 36°09' W 005°26'0 0.0
2014-Apr-19 09:28N 36°09' W 005°26'0 0.4
2014-Apr-19 08:33N 36°09' W 005°26'7 7.5
2014-Apr-19 07:33N 36°04' W 005°19'1 0.6
2014-Apr-19 06:33N 36°03' W 005°19'3 2.7
2014-Apr-19 05:33N 36°02' W 005°22'1010.0
2014-Apr-19 04:31N 35°54' W 005°30'1 0.6
2014-Apr-19 03:20N 35°53' W 005°30'1 0.1
2014-Apr-18 11:25N 35°54' W 005°30'5 5.6
2014-Apr-18 10:34N 35°59' W 005°28'1111.1
2014-Apr-18 09:33N 36°02' W 005°15'6 5.6
2014-Apr-18 08:33N 36°04' W 005°09'1 1.1
2014-Apr-18 07:33N 36°05' W 005°09'1 1.0
2014-Apr-18 06:33N 36°06' W 005°10'1 0.6
2014-Apr-18 05:33N 36°06' W 005°09'42 1.6
2014-Apr-17 03:34N 36°32' W 004°28'1514.7
2014-Apr-17 02:33N 36°22' W 004°41'1514.6
2014-Apr-17 01:33N 36°11' W 004°54'1313.5
2014-Apr-17 00:33N 36°05' W 005°09'1414.0
2014-Apr-16 23:34N 35°59' W 005°24'1514.5
2014-Apr-16 22:33N 35°54' W 005°41'1513.3
2014-Apr-16 21:26N 35°51' W 005°59'64914.3
2014-Apr-15 00:00N 27°24' W 013°54'29514.0 variable / 11015.0 5.4 21.018.0
2014-Apr-14 03:00N 23°18' W 016°54'57613.2 360 / 101014.0 5.4 18.014.8
2014-Apr-12 07:21N 13°44' W 017°47'1113.3
2014-Apr-12 06:33N 13°34' W 017°46'2013.1
2014-Apr-12 05:03N 13°14' W 017°45'613.0
2014-Apr-12 04:34N 13°08' W 017°45'1312.9
2014-Apr-12 03:33N 12°55' W 017°44'1313.0
2014-Apr-12 02:33N 12°42' W 017°43'1412.9
2014-Apr-12 01:29N 12°28' W 017°43'1020.4
2014-Apr-12 01:00N 12°18' W 017°42'2 3.9 360 / 101012.010.8 19.015.9
2014-Apr-12 00:33N 12°16' W 017°42'1712.5
2014-Apr-11 23:14N 11°60' W 017°41'3024.4
2014-Apr-11 22:00N 11°30' W 017°36'43 9.2 360 / 71011.0 5.4 22.020.6
2014-Apr-11 17:20N 10°49' W 017°24'1012.1
2014-Apr-11 16:34N 10°40' W 017°20'1212.3
2014-Apr-11 15:33N 10°29' W 017°14'1412.6
2014-Apr-11 14:29N 10°17' W 017°08'2412.6
2014-Apr-11 12:33N 09°56' W 016°55'1613.3
2014-Apr-11 11:20N 09°45' W 016°43'1113.1
2014-Apr-11 10:30N 09°38' W 016°35'1212.9
2014-Apr-11 09:34N 09°30' W 016°26'1313.1
2014-Apr-11 08:33N 09°21' W 016°16'1313.4
2014-Apr-11 07:34N 09°12' W 016°06'16 7.9
2014-Apr-11 05:34N 09°01' W 015°54'1312.3
2014-Apr-11 04:32N 08°52' W 015°45'1312.8
2014-Apr-11 03:33N 08°44' W 015°36'2713.1
2014-Apr-11 01:28N 08°25' W 015°15'1313.1
2014-Apr-11 00:28N 08°16' W 015°06'1213.3
2014-Apr-10 23:34N 08°08' W 014°57'1413.3
2014-Apr-10 22:30N 07°59' W 014°46'1313.3
2014-Apr-10 21:34N 07°50' W 014°37'1713.2
2014-Apr-10 20:18N 07°39' W 014°25'2313.2
2014-Apr-10 18:33N 07°25' W 014°06'  

Dump ship's entire track history

sailing weather and tide predictions

CMA CGM Bahia — V2KU — position and weather